International Skating Union - Official Site

ISU World Cup Heerenveen
December 11-13, 2015

Draw | Lap Times | Index | World Cup

Referee: Susan  SANDVIG-SHOBE  (USA)
Starter: Raymond  MICKA  (NED)
StartTime: EndTime: Air Temp: Ice Temp: Humidity:
11:29 12:43 14.3℃ -12℃ 38%
Result 5000m Men Division B
Rankings as of Dec 13 2015 6:02PM
Rank: No.: Name: Nation: Time: Behind: Points:
1 45 Jonas  Pflug GER GER 6:29.10200m - 18.73 - (18.7)
600m - 49.82 - (31.0)
1000m - 1:18.90 - (30.1)
1400m - 1:49.17 - (30.2)
1800m - 2:19.65 - (30.4)
2200m - 2:50.29 - (30.6)
2600m - 3:20.97 - (30.6)
3000m - 3:51.67 - (30.7)
3400m - 4:22.57 - (30.8)
3800m - 4:53.74 - (31.1)
4200m - 5:25.15 - (31.4)
4600m - 5:57.07 - (31.9)
5000m - 6:29.10 - (32.0)
32
2 136 Aleksandr  Rumyantsev RUS RUS 6:29.67200m - 19.65 - (19.6)
600m - 50.10 - (30.4)
1000m - 1:21.06 - (30.9)
1400m - 1:52.14 - (31.0)
1800m - 2:23.41 - (31.2)
2200m - 2:54.35 - (30.9)
2600m - 3:25.33 - (30.9)
3000m - 3:55.89 - (30.5)
3400m - 4:26.49 - (30.5)
3800m - 4:56.88 - (30.3)
4200m - 5:27.58 - (30.6)
4600m - 5:58.32 - (30.7)
5000m - 6:29.67 - (31.3)
0.57 27
3 137 Yevgeny  Seryaev RUS RUS 6:30.30200m - 20.03 - (20.0)
600m - 50.43 - (30.3)
1000m - 1:20.51 - (30.0)
1400m - 1:50.93 - (30.4)
1800m - 2:21.52 - (30.5)
2200m - 2:52.30 - (30.7)
2600m - 3:22.85 - (30.5)
3000m - 3:53.47 - (30.6)
3400m - 4:24.32 - (30.8)
3800m - 4:55.63 - (31.3)
4200m - 5:26.97 - (31.3)
4600m - 5:58.90 - (31.9)
5000m - 6:30.30 - (31.4)
1.20 23
4 31 Viktor-Hald  Thorup DEN DEN 6:30.98200m - 20.26 - (20.2)
600m - 50.88 - (30.6)
1000m - 1:21.57 - (30.6)
1400m - 1:52.32 - (30.7)
1800m - 2:23.08 - (30.7)
2200m - 2:53.61 - (30.5)
2600m - 3:24.31 - (30.7)
3000m - 3:54.96 - (30.6)
3400m - 4:25.70 - (30.7)
3800m - 4:56.73 - (31.0)
4200m - 5:28.03 - (31.3)
4600m - 5:59.37 - (31.3)
5000m - 6:30.98 - (31.6)
1.88 19
5 117 Reyon  Kay NZL NZL 6:31.06200m - 19.79 - (19.7)
600m - 50.32 - (30.5)
1000m - 1:21.18 - (30.8)
1400m - 1:52.00 - (30.8)
1800m - 2:23.03 - (31.0)
2200m - 2:53.76 - (30.7)
2600m - 3:24.52 - (30.7)
3000m - 3:55.16 - (30.6)
3400m - 4:25.92 - (30.7)
3800m - 4:56.81 - (30.8)
4200m - 5:27.92 - (31.1)
4600m - 5:59.23 - (31.3)
5000m - 6:31.06 - (31.8)
1.96 15
6 51 Michele  Malfatti ITA ITA 6:32.96200m - 19.29 - (19.2)
600m - 50.05 - (30.7)
1000m - 1:20.60 - (30.5)
1400m - 1:51.26 - (30.6)
1800m - 2:21.81 - (30.5)
2200m - 2:52.62 - (30.8)
2600m - 3:23.66 - (31.0)
3000m - 3:54.90 - (31.2)
3400m - 4:25.87 - (30.9)
3800m - 4:57.34 - (31.4)
4200m - 5:29.07 - (31.7)
4600m - 6:01.02 - (31.9)
5000m - 6:32.96 - (31.9)
3.86 11
7 138 Danil  Sinitsyn RUS RUS 6:33.05200m - 19.57 - (19.5)
600m - 49.59 - (30.0)
1000m - 1:20.37 - (30.7)
1400m - 1:51.14 - (30.7)
1800m - 2:22.09 - (30.9)
2200m - 2:52.80 - (30.7)
2600m - 3:23.58 - (30.7)
3000m - 3:54.49 - (30.9)
3400m - 4:25.68 - (31.1)
3800m - 4:57.27 - (31.5)
4200m - 5:29.35 - (32.0)
4600m - 6:01.35 - (32.0)
5000m - 6:33.05 - (31.6)
3.95 9
8 67 Dmitry  Babenko KAZ KAZ 6:33.63200m - 18.93 - (18.9)
600m - 50.01 - (31.0)
1000m - 1:21.40 - (31.3)
1400m - 1:53.13 - (31.7)
1800m - 2:24.59 - (31.4)
2200m - 2:55.91 - (31.3)
2600m - 3:27.14 - (31.2)
3000m - 3:58.14 - (30.9)
3400m - 4:29.17 - (31.0)
3800m - 5:00.42 - (31.2)
4200m - 5:31.68 - (31.2)
4600m - 6:02.85 - (31.1)
5000m - 6:33.63 - (30.7)
4.53 7
9 115 Thomas-Henrik  Søfteland NOR NOR 6:33.92200m - 19.84 - (19.8)
600m - 50.31 - (30.4)
1000m - 1:21.39 - (31.0)
1400m - 1:52.30 - (30.9)
1800m - 2:23.13 - (30.8)
2200m - 2:54.07 - (30.9)
2600m - 3:25.20 - (31.1)
3000m - 3:56.28 - (31.0)
3400m - 4:27.56 - (31.2)
3800m - 4:58.90 - (31.3)
4200m - 5:30.42 - (31.5)
4600m - 6:01.95 - (31.5)
5000m - 6:33.92 - (31.9)
4.82 6
10 130 Sergey  Gryaztsov RUS RUS 6:34.14200m - 19.38 - (19.3)
600m - 50.19 - (30.8)
1000m - 1:21.22 - (31.0)
1400m - 1:52.42 - (31.2)
1800m - 2:23.29 - (30.8)
2200m - 2:54.45 - (31.1)
2600m - 3:25.48 - (31.0)
3000m - 3:56.68 - (31.1)
3400m - 4:28.06 - (31.3)
3800m - 4:59.53 - (31.4)
4200m - 5:31.09 - (31.5)
4600m - 6:02.88 - (31.7)
5000m - 6:34.14 - (31.2)
5.04 5
11 73 Hyung-Joon  Joo KOR KOR 6:35.08200m - 20.31 - (20.3)
600m - 51.72 - (31.4)
1000m - 1:23.45 - (31.7)
1400m - 1:54.94 - (31.4)
1800m - 2:26.50 - (31.5)
2200m - 2:57.95 - (31.4)
2600m - 3:29.41 - (31.4)
3000m - 4:00.69 - (31.2)
3400m - 4:32.17 - (31.4)
3800m - 5:02.97 - (30.8)
4200m - 5:33.60 - (30.6)
4600m - 6:04.08 - (30.4)
5000m - 6:35.08 - (30.9)
5.98 4
12 80 Seung-Hoon  Lee KOR KOR 6:36.96200m - 19.95 - (19.9)
600m - 51.14 - (31.1)
1000m - 1:22.15 - (31.0)
1400m - 1:53.51 - (31.3)
1800m - 2:24.72 - (31.2)
2200m - 2:56.14 - (31.4)
2600m - 3:27.31 - (31.1)
3000m - 3:58.79 - (31.4)
3400m - 4:30.24 - (31.4)
3800m - 5:01.61 - (31.3)
4200m - 5:33.16 - (31.5)
4600m - 6:04.93 - (31.7)
5000m - 6:36.96 - (32.0)
7.86 3
13 65 Shane  Williamson JPN JPN 6:37.06200m - 18.83 - (18.8)
600m - 48.77 - (29.9)
1000m - 1:21.46 - (31.6)
1400m - 1:53.35 - (31.8)
1800m - 2:25.38 - (32.0)
2200m - 2:57.44 - (32.0)
2600m - 3:29.43 - (31.9)
3000m - 4:01.00 - (31.5)
3400m - 4:32.26 - (31.2)
3800m - 5:03.62 - (31.3)
4200m - 5:34.94 - (31.3)
4600m - 6:05.95 - (31.0)
5000m - 6:37.06 - (31.1)
7.96 2
14 9 Vitaly  Mikhailov BLR BLR 6:37.14200m - 19.17 - (19.1)
600m - 49.32 - (30.1)
1000m - 1:20.67 - (31.3)
1400m - 1:52.53 - (31.8)
1800m - 2:24.07 - (31.5)
2200m - 2:55.65 - (31.5)
2600m - 3:26.80 - (31.1)
3000m - 3:58.29 - (31.4)
3400m - 4:29.63 - (31.3)
3800m - 5:01.46 - (31.8)
4200m - 5:33.24 - (31.7)
4600m - 6:05.25 - (32.0)
5000m - 6:37.14 - (31.8)
8.04 1
15 107 Sindre  Henriksen NOR NOR 6:37.21200m - 19.44 - (19.4)
600m - 49.90 - (30.4)
1000m - 1:20.75 - (30.8)
1400m - 1:52.18 - (31.4)
1800m - 2:23.65 - (31.4)
2200m - 2:55.22 - (31.5)
2600m - 3:26.91 - (31.6)
3000m - 3:58.66 - (31.7)
3400m - 4:30.17 - (31.5)
3800m - 5:01.89 - (31.7)
4200m - 5:33.47 - (31.5)
4600m - 6:05.11 - (31.6)
5000m - 6:37.21 - (32.0)
8.11 0
16 4 Linus  Heidegger AUT AUT 6:38.36200m - 19.94 - (19.9)
600m - 51.69 - (31.7)
1000m - 1:23.43 - (31.7)
1400m - 1:55.30 - (31.8)
1800m - 2:26.86 - (31.5)
2200m - 2:58.24 - (31.3)
2600m - 3:29.14 - (30.8)
3000m - 4:00.04 - (30.9)
3400m - 4:31.29 - (31.2)
3800m - 5:02.81 - (31.5)
4200m - 5:34.47 - (31.6)
4600m - 6:06.36 - (31.8)
5000m - 6:38.36 - (31.9)
9.26 0
17 22 Longjiang  Sun CHN CHN 6:39.53200m - 19.37 - (19.3)
600m - 50.15 - (30.7)
1000m - 1:21.27 - (31.1)
1400m - 1:52.32 - (31.0)
1800m - 2:23.04 - (30.7)
2200m - 2:54.05 - (31.0)
2600m - 3:25.01 - (30.9)
3000m - 3:56.40 - (31.3)
3400m - 4:27.90 - (31.4)
3800m - 5:00.08 - (32.1)
4200m - 5:32.59 - (32.5)
4600m - 6:05.55 - (32.9)
5000m - 6:39.53 - (33.9)
10.43 0
18 152 Ian  Quinn USA USA 6:43.89200m - 19.78 - (19.7)
600m - 50.52 - (30.7)
1000m - 1:22.10 - (31.5)
1400m - 1:53.67 - (31.5)
1800m - 2:25.71 - (32.0)
2200m - 2:57.69 - (31.9)
2600m - 3:29.78 - (32.0)
3000m - 4:02.00 - (32.2)
3400m - 4:34.46 - (32.4)
3800m - 5:07.16 - (32.6)
4200m - 5:39.45 - (32.2)
4600m - 6:11.72 - (32.2)
5000m - 6:43.89 - (32.1)
14.79 0
19 125 Piotr  Puszkarski POL POL 6:49.25200m - 20.07 - (20.0)
600m - 51.06 - (30.9)
1000m - 1:22.22 - (31.1)
1400m - 1:53.51 - (31.2)
1800m - 2:25.04 - (31.5)
2200m - 2:56.45 - (31.4)
2600m - 3:28.38 - (31.9)
3000m - 4:00.57 - (32.1)
3400m - 4:33.37 - (32.8)
3800m - 5:06.43 - (33.0)
4200m - 5:40.15 - (33.7)
4600m - 6:14.37 - (34.2)
5000m - 6:49.25 - (34.8)
20.15 0
20 18 Stefan  Waples CAN CAN 6:50.03200m - 19.40 - (19.4)
600m - 49.67 - (30.2)
1000m - 1:20.07 - (30.4)
1400m - 1:51.59 - (31.5)
1800m - 2:23.46 - (31.8)
2200m - 2:55.73 - (32.2)
2600m - 3:28.25 - (32.5)
3000m - 4:01.34 - (33.0)
3400m - 4:34.87 - (33.5)
3800m - 5:09.06 - (34.1)
4200m - 5:43.09 - (34.0)
4600m - 6:16.27 - (33.1)
5000m - 6:50.03 - (33.7)
20.93 0
21 128 Adrian  Wielgat POL POL 6:50.09200m - 19.95 - (19.9)
600m - 51.89 - (31.9)
1000m - 1:24.43 - (32.5)
1400m - 1:56.42 - (31.9)
1800m - 2:28.35 - (31.9)
2200m - 3:00.53 - (32.1)
2600m - 3:32.85 - (32.3)
3000m - 4:05.17 - (32.3)
3400m - 4:37.34 - (32.1)
3800m - 5:09.62 - (32.2)
4200m - 5:42.57 - (32.9)
4600m - 6:16.24 - (33.6)
5000m - 6:50.09 - (33.8)
20.99 0
22 143 Martin  Hänggi SUI SUI 6:52.33200m - 19.87 - (19.8)
600m - 51.25 - (31.3)
1000m - 1:23.63 - (32.3)
1400m - 1:56.33 - (32.7)
1800m - 2:28.93 - (32.5)
2200m - 3:01.54 - (32.6)
2600m - 3:33.87 - (32.3)
3000m - 4:06.57 - (32.6)
3400m - 4:39.30 - (32.7)
3800m - 5:12.61 - (33.3)
4200m - 5:45.80 - (33.1)
4600m - 6:19.33 - (33.5)
5000m - 6:52.33 - (32.9)
23.23 0
23 66 Aoi  Yokoyama JPN JPN 6:52.61200m - 19.77 - (19.7)
600m - 50.78 - (31.0)
1000m - 1:21.70 - (30.9)
1400m - 1:52.98 - (31.2)
1800m - 2:24.63 - (31.6)
2200m - 2:56.96 - (32.3)
2600m - 3:29.83 - (32.8)
3000m - 4:03.23 - (33.4)
3400m - 4:36.81 - (33.5)
3800m - 5:10.48 - (33.6)
4200m - 5:44.63 - (34.1)
4600m - 6:18.95 - (34.3)
5000m - 6:52.61 - (33.6)
23.51 0
24 38 Tuomas  Rahnasto FIN FIN 7:00.09200m - 19.85 - (19.8)
600m - 51.75 - (31.9)
1000m - 1:24.54 - (32.7)
1400m - 1:57.17 - (32.6)
1800m - 2:29.99 - (32.8)
2200m - 3:02.99 - (32.9)
2600m - 3:36.62 - (33.6)
3000m - 4:10.03 - (33.4)
3400m - 4:43.72 - (33.6)
3800m - 5:17.36 - (33.6)
4200m - 5:51.66 - (34.3)
4600m - 6:26.23 - (34.5)
5000m - 7:00.09 - (33.8)
30.99 0
25 119 Marcin  Bachanek POL POL 7:00.10200m - 19.90 - (19.9)
600m - 51.86 - (31.9)
1000m - 1:24.58 - (32.7)
1400m - 1:57.58 - (32.9)
1800m - 2:30.26 - (32.6)
2200m - 3:03.70 - (33.4)
2600m - 3:36.91 - (33.2)
3000m - 4:10.56 - (33.6)
3400m - 4:44.07 - (33.5)
3800m - 5:17.97 - (33.8)
4200m - 5:52.34 - (34.3)
4600m - 6:26.72 - (34.3)
5000m - 7:00.10 - (33.3)
31.00 0
26 46 Konrád  Nagy HUN HUN DNS 0